Location: Chefe Valiua
(16.5342°S, 37.2214°E)
Time: 01:04:14
(UTC+00:00)

Intelsat 5-3 Rocket - Pass Details

Date: 19 January 2021
Orbit: 283 x 6079 km, 23.5° (Epoch: 07 March)

Event Time Altitude Azimuth Distance (km) Brightness Sun altitude
Rises 18:27:55 0° 266° (W) 5,251 8.1 -29.9°
Reaches altitude 10° 18:32:57 10° 259° (W) 3,296 7.0 -30.8°
Enters shadow 18:39:05 35° 204° (SSW) 1,107 4.2 -32.0°
